Tracking 35280 objects as of 7-Sep-2026
HD Live streaming from Space Station
objects crossing your sky now

SL-4 R/B


SL-4 R/B is no longer on orbit


NORAD ID: 15194
Int'l Code: 1984-086B
Launch date: August 14, 1984
Source: Commonwealth of Independent States (former USSR) (CIS)
Launch site: TYURATAM MISSILE AND SPACE COMPLEX (TTMTR)
Decay date: 1984-08-17

Note: This is a ROCKET BODY
Your satellite tracking list
Your tracking list is empty




NASA's NSSDC Master Catalog

Two Line Element Set (TLE):
1 15194U 84086  B 84229.89923148  .13218982 +56760-4 +48750-3 0  9994
2 15194 051.6311 055.1938 0010683 097.4411 263.0369 16.43310742000431
Source of the keplerian elements: AFSPC